Location: Arnolds Mill
(42.3415°N, 73.5951°W)
Time: 12:11:05
(UTC+00:00)

Tiangong - Visible Passes

Search period start: 17 July 2025 00:00
Search period end: 27 July 2025 00:00
Orbit: 391 x 402 km, 41.5° (Epoch: 17 July)

Date Brightness Start Highest point End Pass type
(mag) Time Alt. Az. Time Alt. Az. Time Alt. Az.
17 Jul -0.5 01:32:29 10° SSW 01:34:44 17° SSE 01:35:09 17° SE visible
18 Jul -1.7 02:12:43 10° SW 02:15:47 41° SSE 02:15:47 41° SSE visible
19 Jul -1.2 01:17:19 10° SW 01:20:12 30° SSE 01:23:07 10° E visible
19 Jul -0.8 02:53:51 10° WSW 02:55:49 33° WSW 02:55:49 33° WSW visible
20 Jul -2.1 01:58:10 10° WSW 02:01:23 61° SSE 02:02:59 26° E visible
20 Jul 0.8 03:35:11 10° W 03:35:27 12° W 03:35:27 12° W visible
21 Jul -1.8 01:02:33 10° WSW 01:05:41 47° SSE 01:08:51 10° E visible
21 Jul -2.0 02:39:26 10° W 02:42:23 68° WSW 02:42:23 68° WSW visible
22 Jul -2.2 01:43:40 10° W 01:46:56 76° S 01:49:10 19° E visible
22 Jul 0.4 03:20:45 10° W 03:21:36 17° W 03:21:36 17° W visible
23 Jul -2.2 02:24:58 10° W 02:28:12 69° S 02:28:17 69° S visible
24 Jul -2.1 01:29:09 10° W 01:32:24 77° S 01:34:53 16° E visible
24 Jul 0.3 03:06:18 10° W 03:07:19 18° W 03:07:19 18° W visible
25 Jul -1.9 02:10:26 10° W 02:13:36 50° SSW 02:13:53 48° S visible
26 Jul -2.0 01:14:34 10° W 01:17:47 64° S 01:20:26 14° ESE visible
26 Jul 0.4 02:51:58 10° W 02:52:52 15° WSW 02:52:52 15° WSW visible
